Location: *
(46.1333°S, 161.2167°W)
Time: 03:54:34
(UTC+00:00)

YAOGAN 6 - Pass Details

Date: 15 July 2020
Orbit: 466 x 504 km, 97.0° (Epoch: 10 August)

Event Time Altitude Azimuth Distance (km) Brightness Sun altitude
Rises 16:16:27 0° 11° (N) 2,540 6.5 -21.1°
Reaches altitude 10° 16:18:30 10° 9° (N) 1,664 5.5 -20.7°
Maximum altitude 16:22:05 79° 282° (WNW) 499 2.4 -20.1°
Enters shadow 16:22:40 60° 211° (SSW) 562 2.6 -20.0°
